Satellite: RS-38
Catalog number: 35869
Epoch time: 10090.77551285
Element set: 166
Inclination: 098.7661 deg
RA of node: 145.1231 deg
Eccentricity: 0.0003938
Arg of perigee: 223.2140 deg
Mean anomaly: 136.8684 deg
Mean motion: 14.21978195 rev/day
Decay rate: 1.76e-06 rev/day^2
Epoch rev: 2772
Checksum: 321
/EX
More information about the Keps
mailing list